Cloud_Cover
100 100 100 100 9 0 0 0 0 0 0 0 0 0 1 0 3 0 3 0 0 0 0 0 0 0 0 0 0 0 0 0 0 0 0 0 0 0 0 0 0 0 1 1 0
100 100 100 49 9 0 0 0 0 0 1 0 0 0 4 5 14 22 11 2 0 0 0 0 0 0 0 0 0 0 0 0 0 0 0 0 0 0 0 0 0 0 0 0 0
100 100 100 16 8 0 2 0 2 5 5 1 5 5 5 5 5 5 5 5 5 0 5 5 0 0 0 0 0 0 0 0 0 0 0 0 0 0 0 0 0 0 0 0 0
100 100 97 3 2 0 0 0 0 0 5 5 5 5 5 2 5 5 5 5 5 5 5 5 5 5 5 3 0 0 0 0 0 0 0 0 0 0 0 0 0 0 0 0 0
100 100 100 7 0 0 0 0 0 0 0 0 0 0 0 4 5 5 5 43 24 10 40 10 9 6 5 5 1 0 0 0 0 0 0 0 0 0 0 0 0 0 0 0 0
100 100 100 19 2 0 0 0 0 0 0 0 0 0 0 0 0 4 5 5 5 5 5 46 67 45 27 5 4 0 0 0 0 0 0 0 0 0 0 0 0 0 0 0 0
100 100 100 35 4 0 0 0 0 0 0 0 0 5 3 0 5 0 4 5 5 5 5 37 70 72 80 38 5 5 5 4 0 0 0 0 0 0 0 0 0 0 0 0 0
100 99 59 21 0 2 3 0 0 1 5 5 5 0 0 0 4 0 0 0 2 4 5 5 5 5 7 6 11 9 7 5 0 0 0 0 0 0 0 0 0 0 0 0 0
67 27 14 5 4 5 5 5 5 5 5 2 0 0 0 0 0 0 0 0 0 0 0 0 0 0 5 5 5 48 69 5 0 0 0 0 0 0 1 1 0 0 0 0 0
24 16 5 5 5 5 5 5 2 5 0 0 4 1 0 0 0 0 0 0 0 0 0 0 0 0 2 0 5 23 6 5 2 0 0 0 0 0 0 0 0 0 0 0 0
5 24 5 5 5 5 5 5 2 0 0 5 2 0 0 0 0 0 0 0 0 0 0 0 0 0 0 5 5 5 40 5 5 0 0 0 0 0 0 0 0 0 0 0 4
6 27 5 5 5 5 2 0 0 5 5 4 0 0 4 0 0 0 0 0 0 0 0 0 0 0 0 0 4 5 5 11 5 5 3 0 0 0 0 3 0 0 0 4 0
4 36 1 0 5 5 4 0 0 1 4 0 2 1 0 0 0 3 2 0 0 0 0 0 0 0 0 0 0 5 5 7 14 5 0 0 0 0 0 0 0 1 0 0 0
7 41 0 2 0 0 4 5 5 5 5 0 0 0 0 0 2 0 0 0 0 0 0 0 0 0 1 0 4 5 5 7 5 0 0 0 0 0 0 0 0 4 0 4 5
16 46 0 0 4 5 0 5 5 5 3 3 4 0 0 0 0 0 0 0 0 2 0 0 0 0 0 0 4 5 5 5 5 5 0 0 0 0 0 0 0 1 4 5 5
13 46 1 0 0 0 5 5 5 4 0 0 0 0 0 0 0 0 0 0 0 0 0 0 0 0 0 4 10 6 5 5 5 5 4 0 0 0 0 0 0 0 5 5 5
28 7 0 0 5 4 4 2 4 0 2 0 0 0 0 0 0 0 0 0 0 0 0 0 0 5 5 5 5 7 8 5 9 5 4 1 0 0 0 0 0 5 5 6 5
10 5 5 5 4 0 0 0 2 0 0 0 0 0 0 0 0 0 0 0 0 0 0 5 5 6 5 5 5 5 5 5 5 3 1 4 2 0 0 0 0 5 5 63 5
5 5 0 0 0 0 0 0 0 0 0 0 0 0 0 0 0 0 0 0 0 0 2 7 92 38 5 5 5 0 0 0 0 0 5 0 8 0 0 0 5 3 5 11 8
1 0 0 0 0 0 0 0 0 0 0 0 0 0 0 0 0 0 0 0 0 0 4 26 100 49 5 5 4 0 0 2 4 1 3 1 7 7 3 0 5 5 11 5 46
5 5 4 0 0 0 0 0 0 0 0 0 0 0 0 0 0 0 0 0 0 2 5 22 92 95 27 78 59 20 5 6 45 4 5 5 25 5 4 3 34 61 5 5 15
5 5 5 0 0 0 0 0 0 0 0 0 0 0 0 0 0 0 0 0 0 0 5 5 66 98 88 42 10 16 5 55 67 56 100 100 20 79 5 8 97 6 92 96 59
1 0 0 0 0 0 0 0 0 0 0 0 0 0 0 1 4 1 0 0 5 5 5 7 61 37 78 43 34 51 6 100 71 86 92 97 25 100 5 98 76 100 100 100 100
4 1 0 0 0 0 0 0 0 0 0 0 1 0 5 5 5 5 5 5 18 76 87 93 22 52 98 85 31 15 79 100 100 100 96 91 69 100 75 96 74 100 100 100 100
4 2 5 0 0 0 5 5 5 5 5 5 5 5 5 5 5 5 5 81 97 20 91 6 27 20 49 84 24 5 81 100 100 100 100 100 95 100 100 100 100 100 100 100 100
5 5 5 5 4 0 5 5 5 5 5 5 8 29 10 38 99 92 88 100 100 100 100 40 61 5 5 73 5 5 100 100 100 100 100 100 100 100 100 100 100 100 100 100 100
35 99 85 5 5 5 5 53 66 64 5 43 92 73 36 96 89 90 100 84 93 70 100 61 77 99 52 63 14 20 78 100 100 100 100 100 100 100 100 100 100 100 100 100 100